Angel Fire, NM

8:40 AM MST on November 20, 2019 (GMT -0700)
Angel Fire

Weather History for KAXX - June, 2019

Change the Weather History Date:

Friday, June 7, 2019

  Actual Average (KSKX) Record (KSKX)
Temperature  
Mean Temperature 52 °F -  
Max Temperature 71 °F 76 °F 89 °F (2004)
Min Temperature 32 °F 40 °F 33 °F (1999)
Degree Days  
Heating Degree Days 14    
Growing Degree Days 2 (Base 50)    
Moisture  
Dew Point 37 °F    
Average Humidity 62    
Maximum Humidity 97    
Minimum Humidity 24    
Precipitation  
Precipitation 0.01 in - - ()
Sea Level Pressure  
Sea Level Pressure 30.23 in    
Wind  
Wind Speed 4 mph (WSW)    
Max Wind Speed 18 mph    
Max Gust Speed 30 mph    
Visibility 10 miles    
Events Rain    
Averages and records for this station are not official NWS values.
T = Trace of Precipitation, MM = Missing Value Source: NWS Daily Summary

Daily Weather History Graph

Daily Weather History Graph

Search for Another Location

Airport or City:

Astronomy

Jun. 07, 2019 Rise Set
Actual Time 5:43 AM MDT 8:17 PM MDT
Civil Twilight 5:12 AM MDT 8:47 PM MDT
Nautical Twilight 4:35 AM MDT 9:24 PM MDT
Astronomical Twilight 3:53 AM MDT 10:06 PM MDT
Moon 10:01 AM MDT (6/7) No Moon Set
Length of Visible Light 15h 34m
Length of Day
14h 33m
Waxing Crescent, 23% of the Moon is Illuminated
Jun 7
Waxing Crescent
Jun 10
First Quarter
Jun 17
Full
Jun 25
Last Quarter
Jul 2
New

Hourly Weather History & Observations

Time (MDT) Temp. Windchill Dew Point Humidity Pressure Visibility Wind Dir Wind Speed Gust Speed Precip Events Conditions
12:15 AM 40.5 °F - 37.2 °F 88% 30.29 in 10.0 mi Calm Calm - N/A   Unknown
12:35 AM 40.1 °F - 37.9 °F 92% 30.28 in 10.0 mi Calm Calm - N/A   Unknown
12:55 AM 39.9 °F - 37.4 °F 91% 30.28 in 10.0 mi Calm Calm - N/A   Unknown
1:15 AM 37.0 °F - 35.1 °F 93% 30.29 in 10.0 mi Calm Calm - N/A   Unknown
1:35 AM 36.9 °F 34.3 °F 34.9 °F 93% 30.29 in 10.0 mi SE 3.5 mph - N/A   Unknown
1:55 AM 37.8 °F - 35.8 °F 93% 30.29 in 10.0 mi Calm Calm - N/A   Unknown
2:15 AM 36.9 °F 33.1 °F 35.4 °F 95% 30.28 in 10.0 mi South 4.6 mph - N/A   Unknown
2:35 AM 36.3 °F - 34.3 °F 93% 30.28 in 10.0 mi Calm Calm - N/A   Unknown
2:55 AM 36.1 °F - 34.7 °F 94% 30.27 in 10.0 mi Calm Calm - N/A   Unknown
3:15 AM 35.8 °F - 34.5 °F 95% 30.27 in 10.0 mi Calm Calm - N/A   Unknown
3:35 AM 36.1 °F - 34.7 °F 94% 30.27 in 10.0 mi Calm Calm - N/A   Unknown
3:55 AM 34.7 °F - 33.6 °F 96% 30.27 in 10.0 mi Calm Calm - N/A   Unknown
4:15 AM 34.0 °F - 32.9 °F 96% 30.27 in 10.0 mi Calm Calm - N/A   Unknown
4:35 AM 34.0 °F 28.8 °F 32.7 °F 95% 30.27 in 10.0 mi SSE 5.8 mph - N/A   Unknown
4:55 AM 33.8 °F 30.8 °F 32.7 °F 96% 30.27 in 10.0 mi West 3.5 mph - N/A   Unknown
5:15 AM 33.8 °F - 32.7 °F 96% 30.28 in 10.0 mi Calm Calm - N/A   Unknown
5:35 AM 32.7 °F - 31.8 °F 96% 30.27 in 10.0 mi Calm Calm - N/A   Unknown
5:55 AM 32.9 °F - 32.0 °F 96% 30.28 in 10.0 mi Calm Calm - N/A   Unknown
6:15 AM 32.5 °F - 31.8 °F 97% 30.28 in 10.0 mi Calm Calm - N/A   Unknown
6:35 AM 34.9 °F - 34.0 °F 97% 30.28 in 10.0 mi Calm Calm - N/A   Unknown
6:55 AM 37.2 °F - 35.6 °F 94% 30.28 in 10.0 mi Calm Calm - N/A   Unknown
7:15 AM 39.6 °F - 37.8 °F 93% 30.28 in 10.0 mi Calm Calm - N/A   Unknown
7:30 AM 42.1 °F - 39.4 °F 90% 30.28 in 10.0 mi Calm Calm - N/A   Unknown
7:55 AM 45.9 °F - 40.8 °F 83% 30.28 in 10.0 mi Calm Calm - N/A   Unknown
8:15 AM 48.4 °F - 41.0 °F 76% 30.28 in 10.0 mi Calm Calm - N/A   Unknown
8:35 AM 50.5 °F - 42.4 °F 74% 30.27 in 10.0 mi Calm Calm - N/A   Unknown
8:55 AM 52.9 °F - 42.1 °F 67% 30.27 in 10.0 mi Calm Calm - N/A   Unknown
9:15 AM 55.9 °F - 43.9 °F 64% 30.26 in 10.0 mi Calm Calm - N/A   Unknown
9:35 AM 59.9 °F - 46.4 °F 61% 30.25 in 10.0 mi Calm Calm - N/A   Unknown
9:55 AM 63.7 °F - 40.5 °F 43% 30.24 in 10.0 mi SSW 3.5 mph - N/A   Unknown
10:15 AM 65.3 °F - 39.7 °F 39% 30.24 in 10.0 mi West 13.8 mph 19.6 mph N/A   Unknown
10:35 AM 65.8 °F - 38.7 °F 37% 30.24 in 10.0 mi West 12.7 mph 17.3 mph N/A   Unknown
10:55 AM 66.2 °F - 36.9 °F 34% 30.25 in 10.0 mi WNW 11.5 mph - N/A   Unknown
11:15 AM 67.1 °F - 37.8 °F 34% 30.24 in 10.0 mi WNW 13.8 mph 19.6 mph N/A   Unknown
11:35 AM 67.8 °F - 38.8 °F 35% 30.24 in 10.0 mi West 12.7 mph 18.4 mph N/A   Unknown
11:55 AM 68.7 °F - 37.8 °F 32% 30.24 in 10.0 mi West 13.8 mph 18.4 mph N/A   Unknown
12:15 PM 69.1 °F - 34.3 °F 28% 30.23 in 10.0 mi NW 6.9 mph 18.4 mph N/A   Unknown
12:35 PM 69.3 °F - 34.5 °F 28% 30.23 in 10.0 mi West 15.0 mph 20.7 mph N/A   Unknown
12:55 PM 70.0 °F - 36.0 °F 29% 30.22 in 10.0 mi WNW 13.8 mph 25.3 mph N/A   Unknown
1:15 PM 68.2 °F - 34.3 °F 29% 30.21 in 10.0 mi WSW 5.8 mph 24.2 mph N/A   Unknown
1:35 PM 70.3 °F - 35.2 °F 28% 30.20 in 10.0 mi West 12.7 mph 23.0 mph N/A   Unknown
1:55 PM 70.2 °F - 32.0 °F 24% 30.20 in 10.0 mi West 15.0 mph 26.5 mph N/A   Unknown
2:15 PM 69.3 °F - 35.2 °F 29% 30.20 in 10.0 mi West 16.1 mph 21.9 mph N/A   Unknown
2:35 PM 71.4 °F - 34.9 °F 26% 30.19 in 10.0 mi West 12.7 mph 23.0 mph N/A   Unknown
2:55 PM 71.6 °F - 35.4 °F 27% 30.18 in 10.0 mi West 15.0 mph 25.3 mph N/A   Unknown
3:15 PM 69.3 °F - 34.2 °F 27% 30.19 in 10.0 mi West 13.8 mph 24.2 mph N/A   Unknown
3:35 PM 69.4 °F - 36.7 °F 30% 30.19 in 10.0 mi West 16.1 mph 26.5 mph N/A   Unknown
3:55 PM 71.1 °F - 34.7 °F 26% 30.18 in 10.0 mi WSW 18.4 mph 26.5 mph N/A   Unknown
4:15 PM 70.0 °F - 33.8 °F 26% 30.18 in 10.0 mi SW 17.3 mph 27.6 mph N/A   Unknown
4:35 PM 71.8 °F - 34.9 °F 26% 30.17 in 10.0 mi West 13.8 mph 23.0 mph N/A   Unknown
4:55 PM 71.2 °F - 34.3 °F 26% 30.16 in 10.0 mi SSW 10.4 mph 16.1 mph N/A   Unknown
5:35 PM 69.6 °F - 32.4 °F 25% 30.15 in 10.0 mi SW 8.1 mph 18.4 mph N/A   Unknown
5:50 PM 70.7 °F - 34.2 °F 26% 30.15 in 10.0 mi SSW 16.1 mph 19.6 mph N/A   Unknown
6:10 PM 62.8 °F - 41.7 °F 46% 30.15 in 7.0 mi South 12.7 mph 29.9 mph 0.01 in Rain Light Rain
6:35 PM 69.1 °F - 35.8 °F 29% 30.15 in 10.0 mi SSW 8.1 mph - 0.01 in   Unknown
6:55 PM 67.5 °F - 32.7 °F 28% 30.15 in 10.0 mi WSW 10.4 mph 20.7 mph 0.01 in   Unknown
7:15 PM 67.5 °F - 35.1 °F 30% 30.16 in 10.0 mi SW 4.6 mph - N/A   Unknown
7:35 PM 64.8 °F - 35.2 °F 33% 30.16 in 10.0 mi Calm Calm - N/A   Unknown
7:55 PM 61.2 °F - 40.8 °F 47% 30.17 in 10.0 mi WSW 3.5 mph - N/A   Unknown
8:15 PM 56.8 °F - 40.8 °F 55% 30.17 in 10.0 mi Calm Calm - N/A   Unknown
8:35 PM 53.1 °F - 41.0 °F 64% 30.17 in 7.0 mi Calm Calm - N/A   Unknown
8:55 PM 49.1 °F - 41.4 °F 75% 30.18 in 10.0 mi Calm Calm - N/A   Unknown
9:15 PM 48.7 °F - 42.6 °F 79% 30.19 in 10.0 mi Calm Calm - N/A   Unknown
9:35 PM 50.0 °F - 40.3 °F 69% 30.19 in 10.0 mi Calm Calm - N/A   Unknown
9:55 PM 49.1 °F - 42.4 °F 78% 30.20 in 10.0 mi Calm Calm - N/A   Unknown
10:15 PM 48.6 °F - 41.7 °F 77% 30.20 in 10.0 mi Calm Calm - N/A   Unknown
10:35 PM 48.0 °F - 41.4 °F 78% 30.21 in 10.0 mi SW 4.6 mph - N/A   Unknown
10:55 PM 49.5 °F - 41.5 °F 74% 30.22 in 10.0 mi Calm Calm - N/A   Unknown
11:15 PM 48.4 °F - 42.3 °F 79% 30.20 in 10.0 mi Calm Calm - N/A   Unknown
11:30 PM 47.5 °F - 41.9 °F 81% 30.21 in 10.0 mi Calm Calm - N/A   Unknown
11:55 PM 46.6 °F - 41.0 °F 81% 30.21 in 10.0 mi Calm Calm - N/A   Unknown